EDT,Max TemperatureF,Mean TemperatureF,Min TemperatureF,Max Dew PointF,MeanDew PointF,Min DewpointF,Max Humidity, Mean Humidity, Min Humidity, Max Sea Level PressureIn, Mean Sea Level PressureIn, Min Sea Level PressureIn, Max VisibilityMiles, Mean VisibilityMiles, Min VisibilityMiles, Max Wind SpeedMPH, Mean Wind SpeedMPH, Max Gust SpeedMPH,PrecipitationIn, CloudCover, Events, WindDirDegrees
2012-7-1,93,85,77,75,72,67,91,67,44,30.09,30.05,30.01,10,10,8,15,4,22,0.00,0,,295
2012-7-2,93,85,77,75,72,69,91,70,46,30.13,30.07,30.00,10,10,10,18,5,25,T,3,Rain-Thunderstorm,76
2012-7-3,95,85,74,73,70,65,87,69,39,30.09,30.04,30.00,10,9,2,24,3,31,0.17,3,Rain-Thunderstorm,170
2012-7-4,91,83,75,74,72,66,88,73,52,30.10,30.06,30.02,10,10,2,18,3,25,0.12,2,Rain-Thunderstorm,133
2012-7-5,92,83,74,75,72,68,87,76,50,30.08,30.03,30.00,10,9,0,18,2,24,0.98,2,Fog-Rain-Thunderstorm,105
2012-7-6,92,83,74,74,72,70,88,79,52,30.07,30.03,30.01,10,9,2,23,3,31,0.36,3,Rain-Thunderstorm,92
2012-7-7,95,85,74,74,71,68,94,75,44,30.09,30.06,30.01,10,8,0,18,4,26,1.50,3,Fog-Rain-Thunderstorm,114
2012-7-8,96,86,75,75,72,68,94,70,42,30.10,30.06,30.00,10,10,10,21,3,28,T,1,Rain,85
2012-7-9,92,84,75,75,72,70,91,76,52,30.06,30.01,29.96,10,9,1,21,3,28,0.58,2,Rain-Thunderstorm,108
2012-7-10,94,85,75,75,72,69,88,78,52,30.04,30.01,29.95,10,10,9,17,6,24,0.07,2,Rain-Thunderstorm,84
2012-7-11,87,81,74,75,73,71,93,81,65,30.06,30.02,29.97,10,8,0,13,5,18,0.75,4,Rain,90
2012-7-12,86,81,75,76,73,70,91,81,61,30.03,30.00,29.96,10,9,2,17,3,21,0.48,5,Rain,108
2012-7-13,91,83,74,76,73,71,94,84,56,30.06,30.02,29.98,10,7,0,21,4,26,2.27,6,Fog-Rain-Thunderstorm,210
2012-7-14,90,83,75,74,72,69,88,73,56,30.09,30.04,29.99,10,10,9,21,6,29,0.01,2,Rain-Thunderstorm,124
2012-7-15,89,82,75,75,73,71,94,80,56,30.11,30.07,30.02,10,9,2,21,6,24,0.49,3,Rain-Thunderstorm,142
2012-7-16,87,81,74,75,72,71,87,78,65,30.09,30.03,29.97,10,10,3,14,4,17,0.18,4,Rain-Thunderstorm,144
2012-7-17,84,80,75,74,72,68,94,83,63,30.06,30.02,29.98,10,10,4,17,2,22,0.32,4,Rain,247
2012-7-18,91,83,75,77,73,70,94,73,49,30.14,30.08,30.02,10,10,10,13,4,16,0.00,1,,194
2012-7-19,94,87,79,77,75,72,91,72,52,30.18,30.13,30.09,10,10,8,14,5,18,0.00,1,,251
2012-7-20,97,87,77,77,73,69,91,68,45,30.13,30.08,30.00,10,10,9,18,3,25,T,2,Thunderstorm,128
2012-7-21,95,86,77,77,74,72,91,77,49,30.11,30.07,30.02,10,8,2,29,4,35,0.23,2,Rain,93
2012-7-22,89,82,75,77,74,71,91,84,68,30.14,30.10,30.05,10,8,0,18,7,25,0.63,3,Fog-Rain-Thunderstorm,105
2012-7-23,89,82,75,76,73,70,88,75,63,30.16,30.13,30.10,10,10,10,18,6,25,0.00,3,Thunderstorm,131
2012-7-24,91,84,76,77,73,71,87,72,52,30.15,30.10,30.04,10,10,10,16,4,20,T,1,Rain-Thunderstorm,185
2012-7-25,92,85,78,76,74,72,85,70,56,30.06,30.04,30.01,10,10,10,13,5,20,0.00,1,,237
2012-7-26,92,85,78,76,74,71,91,71,52,30.06,30.03,29.99,10,10,9,15,5,20,0.00,1,,237
2012-7-27,93,86,79,76,74,72,91,72,52,30.10,30.06,30.01,10,9,2,15,4,21,0.13,3,Rain,243
2012-7-28,90,84,77,75,74,71,88,72,56,30.11,30.08,30.04,10,9,3,16,2,18,0.12,3,Rain-Thunderstorm,194
2012-7-29,92,85,78,76,74,73,91,71,56,30.10,30.05,30.01,10,10,10,15,5,17,0.00,2,,234
2012-7-30,93,86,78,76,73,70,91,69,52,30.06,30.03,30.00,10,10,10,17,4,22,0.00,1,,295
2012-7-31,93,85,77,75,73,71,88,70,52,30.06,30.02,29.98,10,10,10,17,5,21,0.00,1,,205